Weather History for Bentonville, AR

Change the Weather History Date:

Friday, May 16, 2014

  Actual Average Record
Temperature  
Mean Temperature 50 °F -  
Max Temperature 62 °F 76 °F 87 °F (1963)
Min Temperature 37 °F 52 °F 37 °F (2014)
Degree Days  
Heating Degree Days 16    
Moisture  
Dew Point 38 °F    
Average Humidity 63    
Maximum Humidity 87    
Minimum Humidity 42    
Precipitation  
Precipitation 0.09 in - - ()
Sea Level Pressure  
Sea Level Pressure 30.11 in    
Wind  
Wind Speed 3 mph (North)    
Max Wind Speed 14 mph    
Max Gust Speed 21 mph    
Visibility 10 miles    
Events      
Averages and records for this station are not official NWS values.
T = Trace of Precipitation, MM = Missing Value Source: NWS Daily Summary

Daily Weather History Graph

Daily Weather History Graph

Search for Another Location

Airport:

Trip Planner

Search our weather history database for the weather conditions in past years. The results will help you decide how hot, cold, wet, or windy it might be!

Date:

Astronomy

May. 16, 2014 Rise Set
Actual Time 6:09 AM CDT 8:17 PM CDT
Civil Twilight 5:40 AM CDT 8:46 PM CDT
Nautical Twilight 5:05 AM CDT 9:21 PM CDT
Astronomical Twilight 4:27 AM CDT 9:59 PM CDT
Moon 10:25 PM CDT (5/16) 7:52 AM CDT (5/16)
Length of Visible Light 15h 05m
Length of Day
14h 07m
Waning Gibbous, 95% of the Moon is Illuminated
May 16
Waning Gibbous
May 21
Last Quarter
May 28
New
Jun 5
First Quarter
Jun 12
Full

Hourly Weather History & Observations

Time (CDT) Temp. Windchill Dew Point Humidity Pressure Visibility Wind Dir Wind Speed Gust Speed Precip Events Conditions
12:15 AM 44.6 °F - 35.6 °F 71% 30.15 in 10.0 mi Calm Calm - N/A   Clear
12:35 AM 42.8 °F - 35.6 °F 76% 30.14 in 10.0 mi Calm Calm - N/A   Clear
12:55 AM 42.8 °F 41.1 °F 33.8 °F 70% 30.14 in 10.0 mi SSW 3.5 mph - N/A   Clear
1:15 AM 42.8 °F - 33.8 °F 70% 30.14 in 10.0 mi Calm Calm - N/A   Clear
1:35 AM 42.8 °F - 33.8 °F 70% 30.13 in 10.0 mi Calm Calm - N/A   Clear
1:55 AM 42.8 °F - 35.6 °F 76% 30.13 in 10.0 mi Calm Calm - N/A   Clear
2:15 AM 41.0 °F - 35.6 °F 81% 30.13 in 10.0 mi Calm Calm - N/A   Clear
2:35 AM 42.8 °F - 33.8 °F 70% 30.13 in 10.0 mi Calm Calm - N/A   Clear
2:55 AM 41.0 °F - 35.6 °F 81% 30.13 in 10.0 mi Calm Calm - N/A   Clear
3:15 AM 41.0 °F 39.0 °F 35.6 °F 81% 30.12 in 10.0 mi South 3.5 mph - N/A   Clear
3:35 AM 39.2 °F 37.0 °F 35.6 °F 87% 30.12 in 10.0 mi South 3.5 mph - N/A   Clear
3:55 AM 39.2 °F - 33.8 °F 81% 30.12 in 10.0 mi Calm Calm - N/A   Clear
4:15 AM 39.2 °F - 35.6 °F 87% 30.12 in 10.0 mi Calm Calm - N/A   Clear
4:35 AM 39.2 °F - 35.6 °F 87% 30.12 in 10.0 mi Calm Calm - N/A   Clear
4:55 AM 39.2 °F - 35.6 °F 87% 30.12 in 10.0 mi Calm Calm - N/A   Clear
5:15 AM 39.2 °F - 35.6 °F 87% 30.12 in 10.0 mi Calm Calm - N/A   Clear
5:35 AM 39.2 °F - 35.6 °F 87% 30.12 in 10.0 mi Calm Calm - N/A   Clear
5:55 AM 39.2 °F - 35.6 °F 87% 30.12 in 10.0 mi Calm Calm - N/A   Clear
6:15 AM 37.4 °F - 33.8 °F 87% 30.12 in 10.0 mi Calm Calm - N/A   Clear
6:35 AM 37.4 °F - 33.8 °F 87% 30.13 in 10.0 mi Calm Calm - N/A   Clear
6:55 AM 39.2 °F - 35.6 °F 87% 30.13 in 10.0 mi Calm Calm - N/A   Clear
7:15 AM 42.8 °F - 37.4 °F 81% 30.13 in 10.0 mi Calm Calm - N/A   Clear
7:35 AM 44.6 °F - 37.4 °F 76% 30.14 in 10.0 mi Calm Calm - N/A   Clear
7:55 AM 46.4 °F - 39.2 °F 76% 30.13 in 10.0 mi Calm Calm - N/A   Clear
8:15 AM 48.2 °F - 37.4 °F 66% 30.14 in 10.0 mi Calm Calm - N/A   Clear
8:35 AM 50.0 °F - 37.4 °F 62% 30.14 in 10.0 mi WNW 3.5 mph - N/A   Clear
8:55 AM 51.8 °F - 39.2 °F 62% 30.15 in 10.0 mi WNW 3.5 mph - N/A   Clear
9:15 AM 53.6 °F - 42.8 °F 67% 30.14 in 10.0 mi WNW 6.9 mph - N/A   Clear
9:35 AM 55.4 °F - 42.8 °F 63% 30.14 in 10.0 mi West 9.2 mph - N/A   Clear
9:55 AM 57.2 °F - 41.0 °F 55% 30.13 in 10.0 mi West 6.9 mph - N/A   Clear
10:15 AM 57.2 °F - 41.0 °F 55% 30.13 in 10.0 mi West 8.1 mph - N/A   Clear
10:35 AM 59.0 °F - 39.2 °F 48% 30.13 in 10.0 mi NW 5.8 mph - N/A   Clear
10:55 AM 60.8 °F - 41.0 °F 48% 30.13 in 10.0 mi WNW 6.9 mph - N/A   Clear
11:15 AM 60.8 °F - 41.0 °F 48% 30.13 in 10.0 mi NNW 6.9 mph - N/A   Clear
11:35 AM 60.8 °F - 42.8 °F 52% 30.13 in 10.0 mi WNW 5.8 mph - N/A   Clear
11:55 AM 60.8 °F - 41.0 °F 48% 30.13 in 10.0 mi NW 9.2 mph - N/A   Clear
12:15 PM 62.6 °F - 41.0 °F 45% 30.13 in 10.0 mi WNW 6.9 mph - N/A   Clear
12:35 PM 60.8 °F - 39.2 °F 45% 30.12 in 10.0 mi NW 6.9 mph - N/A   Clear
12:55 PM 60.8 °F - 37.4 °F 42% 30.11 in 10.0 mi WNW 4.6 mph - N/A   Clear
1:15 PM 60.8 °F - 39.2 °F 45% 30.11 in 10.0 mi West 9.2 mph - N/A   Clear
1:35 PM 62.6 °F - 41.0 °F 45% 30.11 in 10.0 mi West 8.1 mph - N/A   Clear
1:55 PM 62.6 °F - 39.2 °F 42% 30.11 in 10.0 mi WNW 6.9 mph - N/A   Clear
2:15 PM 60.8 °F - 41.0 °F 48% 30.11 in 10.0 mi WNW 8.1 mph - N/A   Scattered Clouds
2:35 PM 60.8 °F - 42.8 °F 52% 30.11 in 10.0 mi NW 6.9 mph - N/A   Mostly Cloudy
2:55 PM 60.8 °F - 42.8 °F 52% 30.11 in 10.0 mi WNW 5.8 mph - N/A   Mostly Cloudy
3:15 PM 60.8 °F - 41.0 °F 48% 30.10 in 10.0 mi NW 6.9 mph - N/A   Mostly Cloudy
3:35 PM 62.6 °F - 39.2 °F 42% 30.08 in 10.0 mi North 6.9 mph - N/A   Mostly Cloudy
3:55 PM 62.6 °F - 42.8 °F 48% 30.08 in 10.0 mi North 5.8 mph - N/A   Partly Cloudy
4:15 PM 62.6 °F - 41.0 °F 45% 30.08 in 10.0 mi Calm Calm - N/A   Partly Cloudy
4:35 PM 62.6 °F - 39.2 °F 42% 30.07 in 10.0 mi Calm Calm - N/A   Mostly Cloudy
4:55 PM 62.6 °F - 39.2 °F 42% 30.07 in 10.0 mi ENE 5.8 mph - N/A   Scattered Clouds
5:15 PM 62.6 °F - 39.2 °F 42% 30.07 in 10.0 mi ENE 4.6 mph - N/A   Scattered Clouds
5:35 PM 60.8 °F - 39.2 °F 45% 30.06 in 10.0 mi NE 5.8 mph - N/A   Scattered Clouds
5:55 PM 60.8 °F - 39.2 °F 45% 30.05 in 10.0 mi NE 8.1 mph - N/A   Partly Cloudy
6:15 PM 59.0 °F - 37.4 °F 45% 30.04 in 10.0 mi ENE 10.4 mph - N/A   Mostly Cloudy
6:35 PM 59.0 °F - 37.4 °F 45% 30.05 in 10.0 mi ENE 8.1 mph - N/A   Mostly Cloudy
6:55 PM 57.2 °F - 37.4 °F 48% 30.05 in 10.0 mi NE 11.5 mph 18.4 mph N/A   Mostly Cloudy
7:15 PM 55.4 °F - 39.2 °F 54% 30.05 in 10.0 mi ENE 13.8 mph - N/A   Overcast
7:35 PM 55.4 °F - 37.4 °F 51% 30.06 in 10.0 mi ENE 12.7 mph 20.7 mph N/A   Overcast
7:55 PM 53.6 °F - 37.4 °F 54% 30.08 in 10.0 mi ENE 8.1 mph - N/A   Overcast
8:15 PM 53.6 °F - 39.2 °F 58% 30.08 in 10.0 mi NE 11.5 mph - N/A   Overcast
8:35 PM 53.6 °F - 37.4 °F 54% 30.09 in 10.0 mi ENE 10.4 mph - N/A   Overcast
8:55 PM 53.6 °F - 37.4 °F 54% 30.09 in 10.0 mi ENE 6.9 mph - N/A   Overcast
9:15 PM 53.6 °F - 37.4 °F 54% 30.11 in 10.0 mi ENE 10.4 mph - N/A   Overcast
9:35 PM 53.6 °F - 39.2 °F 58% 30.12 in 10.0 mi ENE 6.9 mph - N/A   Mostly Cloudy
9:55 PM 51.8 °F - 39.2 °F 62% 30.12 in 10.0 mi ENE 8.1 mph - N/A   Overcast
10:15 PM 50.0 °F - 41.0 °F 71% 30.14 in 10.0 mi ENE 6.9 mph - 0.04 in   Overcast
10:35 PM 48.2 °F - 42.8 °F 82% 30.15 in 10.0 mi NE 9.2 mph - 0.06 in   Overcast
10:55 PM 48.2 °F - 41.0 °F 76% 30.14 in 10.0 mi NE 9.2 mph - 0.08 in   Overcast
11:15 PM 48.2 °F - 41.0 °F 76% 30.13 in 10.0 mi ENE 9.2 mph - N/A   Overcast
11:35 PM 48.2 °F - 41.0 °F 76% 30.13 in 10.0 mi ENE 11.5 mph - 0.01 in   Overcast
11:55 PM 48.2 °F - 41.0 °F 76% 30.13 in 10.0 mi East 12.7 mph - 0.01 in   Overcast